GW0064 Weather Reports


Display with metric or nautical units.
time (UTC)temp
F
wind
direction
speed
MPH
gust
MPH
rain 1hr
in
rain 24hr
in
rain mn
in
humidity
%
barometer
mb
20260831072959 0 188 2.0 3.0 0.00 0.01 0.00 1017.4
20260831072458 0 179 2.0 3.0 0.00 0.01 0.00 1017.4
20260831071958 0 186 1.0 2.0 0.00 0.01 0.00 1017.4
20260831071501 0 186 1.0 2.0 0.00 0.01 0.00 1017.4
20260831070958 0 181 1.0 1.0 0.00 0.01 0.00 1017.5
20260831070458 0 185 1.0 2.0 0.00 0.01 0.00 1017.5
20260831070001 0 186 1.0 3.0 0.00 0.01 0.00 1017.5
20260831065459 0 184 2.0 4.0 0.00 0.01 0.00 1017.5
20260831064459 0 185 2.0 2.0 0.00 0.01 0.00 1017.4
20260831063959 0 186 0.0 2.0 0.00 0.01 0.00 1017.6
20260831063500 0 186 1.0 1.0 0.00 0.01 0.00 1017.7
20260831063000 0 188 0.0 1.0 0.00 0.01 0.00 1017.7
20260831062459 0 188 0.0 1.0 0.00 0.01 0.00 1017.6
20260831061958 0 188 0.0 0.0 0.00 0.01 0.00 1017.7
20260831061458 0 188 0.0 1.0 0.00 0.01 0.00 1017.8
20260831060959 0 188 0.0 1.0 0.00 0.01 0.00 1017.8
20260831060458 0 188 0.0 2.0 0.00 0.01 0.00 1017.8
20260831060001 0 188 1.0 2.0 0.00 0.01 0.00 1017.8
20260831055459 0 188 0.0 1.0 0.00 0.01 0.00 1017.8
20260831054959 0 188 0.0 1.0 0.00 0.01 0.00 1017.8
20260831054458 0 188 0.0 1.0 0.00 0.01 0.00 1017.8
20260831053959 0 188 0.0 3.0 0.00 0.01 0.00 1017.9
20260831053459 0 187 1.0 4.0 0.00 0.01 0.00 1017.9
20260831052958 0 185 2.0 4.0 0.00 0.01 0.00 1017.8
20260831052500 0 178 2.0 5.0 0.00 0.01 0.00 1017.6
20260831051959 0 193 2.0 5.0 0.00 0.01 0.00 1017.6
20260831051459 0 173 3.0 4.0 0.00 0.01 0.00 1017.6
20260831050500 0 180 2.0 4.0 0.00 0.01 0.00 1017.6
20260831050003 0 179 2.0 4.0 0.00 0.01 0.00 1017.7
20260831045503 0 181 1.0 3.0 0.00 0.01 0.00 1017.8
20260831045003 0 186 2.0 3.0 0.00 0.01 0.00 1017.8
20260831044500 0 180 2.0 3.0 0.00 0.01 0.00 1017.7
20260831044001 0 183 1.0 4.0 0.00 0.01 0.00 1017.8
20260831043500 0 181 2.0 4.0 0.00 0.01 0.00 1017.8
20260831043000 0 174 2.0 4.0 0.00 0.01 0.00 1017.8
20260831042507 0 186 3.0 5.0 0.00 0.01 0.00 1017.8
20260831042003 0 180 2.0 5.0 0.00 0.01 0.00 1017.8
20260831041502 0 182 1.0 4.0 0.00 0.01 0.00 1017.7
20260831040006 0 178 1.0 4.0 0.00 0.01 0.00 1017.6
20260831035002 0 181 3.0 5.0 0.00 0.01 0.01 1017.5
20260831034502 0 178 2.0 3.0 0.00 0.01 0.01 1017.5
20260831034001 0 175 2.0 4.0 0.00 0.01 0.01 1017.6
20260831033501 0 178 1.0 4.0 0.00 0.01 0.01 1017.6
20260831033004 0 179 1.0 3.0 0.00 0.01 0.01 1017.6
20260831032501 0 176 1.0 3.0 0.00 0.01 0.01 1017.7
20260831032002 0 179 0.0 3.0 0.00 0.01 0.01 1017.7
20260831031501 0 179 1.0 3.0 0.00 0.01 0.01 1017.6
20260831025500 0 179 0.0 2.0 0.00 0.01 0.01 1017.8
20260831024502 0 181 0.0 3.0 0.00 0.01 0.01 1017.9
20260831024002 0 181 1.0 3.0 0.00 0.01 0.01 1017.9
20260831023500 0 180 0.0 1.0 0.00 0.01 0.01 1017.8
20260831023000 0 179 0.0 3.0 0.00 0.01 0.01 1017.8
20260831022500 0 177 0.0 4.0 0.00 0.01 0.01 1017.8
20260831022001 0 179 2.0 4.0 0.00 0.01 0.01 1017.8
20260831021500 0 173 2.0 4.0 0.00 0.01 0.01 1017.8
20260831021000 0 180 2.0 4.0 0.00 0.01 0.01 1017.8
20260831020500 0 175 1.0 2.0 0.00 0.01 0.01 1017.9
20260831020003 0 177 0.0 1.0 0.00 0.01 0.01 1018.0
20260831015500 0 174 1.0 1.0 0.00 0.01 0.01 1017.9
20260831015000 0 174 0.0 0.0 0.00 0.01 0.01 1018.0
20260831014500 0 174 0.0 0.0 0.00 0.01 0.01 1018.0
20260831014003 0 174 0.0 0.0 0.00 0.01 0.01 1018.1
20260831013501 0 174 0.0 0.0 0.00 0.01 0.01 1018.0
20260831013000 0 174 0.0 0.0 0.00 0.01 0.01 1018.0
20260831012501 0 174 0.0 0.0 0.00 0.01 0.01 1017.8
20260831012007 0 174 0.0 0.0 0.00 0.01 0.01 1017.8
20260831011501 0 174 0.0 0.0 0.00 0.01 0.01 1017.7
20260831011015 0 174 0.0 0.0 0.00 0.01 0.01 1017.7
20260831010500 0 170 0.0 0.0 0.00 0.01 0.01 1017.7
20260831010004 77 141 0.0 0.0 0.00 0.01 0.01 1017.7
20260831005503 77 141 0.0 0.0 0.00 0.01 0.01 100 1017.7
20260831005001 78 141 0.0 0.0 0.00 0.01 0.01 1017.5
20260831004500 78 141 0.0 0.0 0.00 0.01 0.01 78 1017.4
20260831004000 78 141 0.0 0.0 0.00 0.01 0.01 78 1017.5
20260831003503 79 141 0.0 1.0 0.00 0.01 0.01 77 1017.5
20260831003000 79 141 0.0 2.0 0.00 0.01 0.01 77 1017.4
20260831002500 79 140 0.0 2.0 0.00 0.01 0.01 77 1017.4
20260831002002 79 147 0.0 0.0 0.00 0.01 0.01 77 1017.4
20260831001000 79 148 0.0 0.0 0.01 0.01 0.01 76 1017.4
20260831000500 79 148 0.0 0.0 0.01 0.01 0.01 75 1017.4
20260830235000 0 148 0.0 1.0 0.01 0.01 0.01 75 1017.6
20260830234501 0 148 0.0 1.0 0.01 0.01 0.01 1017.6
20260830233500 0 207 0.0 1.0 0.01 0.01 0.01 1017.7
20260830233000 81 259 0.0 0.0 0.01 0.01 0.01 1017.8
20260830232501 0 259 0.0 0.0 0.01 0.01 0.01 1017.8
20260830232001 0 258 0.0 1.0 0.01 0.01 0.01 1017.8
20260830231500 0 259 0.0 1.0 0.00 0.00 0.00 1017.8
20260830230500 0 259 0.0 0.0 0.00 0.00 0.00 1017.8
20260830225500 0 258 0.0 1.0 0.00 0.00 0.00 1017.9
20260830225002 0 259 0.0 1.0 0.00 0.00 0.00 1018.0
20260830224501 0 259 0.0 1.0 0.00 0.00 0.00 1018.1
20260830224000 0 259 0.0 1.0 0.00 0.00 0.00 1018.0
20260830223459 0 259 0.0 1.0 0.00 0.00 0.00 1018.0
20260830223000 0 260 0.0 2.0 0.00 0.00 0.00 1017.8
20260830222501 0 261 1.0 2.0 0.00 0.00 0.00 1017.8
20260830222001 0 266 1.0 2.0 0.00 0.00 0.00 1017.8
20260830221502 0 233 1.0 4.0 0.00 0.00 0.00 1017.7
20260830221000 0 264 1.0 4.0 0.00 0.00 0.00 1017.6
20260830220502 0 228 1.0 4.0 0.00 0.00 0.00 1017.7
20260830215502 0 171 2.0 4.0 0.00 0.00 0.00 1017.6
20260830215005 0 238 2.0 5.0 0.00 0.00 0.00 1017.6
20260830214503 0 227 3.0 6.0 0.00 0.00 0.00 1017.5
20260830213513 0 195 3.0 7.0 0.00 0.00 0.00 1017.5
20260830213003 0 217 3.0 7.0 0.00 0.00 0.00 1017.6
20260830212501 0 246 3.0 9.0 0.00 0.00 0.00 1017.6
20260830212001 0 200 3.0 10.0 0.00 0.00 0.00 1017.5
20260830211501 0 250 5.0 10.0 0.00 0.00 0.00 1017.4
20260830211005 0 206 5.0 8.0 0.00 0.00 0.00 1017.3
20260830210500 0 236 4.0 8.0 0.00 0.00 0.00 1017.4
20260830210006 0 172 3.0 10.0 0.00 0.00 0.00 1017.4
20260830205503 0 193 5.0 13.0 0.00 0.00 0.00 1017.3
20260830205004 0 199 5.0 11.0 0.00 0.00 0.00 1017.4
20260830204503 0 149 3.0 9.0 0.00 0.00 0.00 1017.5
20260830204000 0 179 4.0 9.0 0.00 0.00 0.00 1017.6
20260830203505 0 236 6.0 9.0 0.00 0.00 0.00 1017.7
20260830203000 0 180 6.0 9.0 0.00 0.00 0.00 1017.8
20260830202500 0 193 5.0 9.0 0.00 0.00 0.00 1017.9
20260830202009 0 196 5.0 8.0 0.00 0.00 0.00 1017.9
20260830201506 0 154 5.0 8.0 0.00 0.00 0.00 1018.0
20260830201002 0 197 4.0 8.0 0.00 0.00 0.00 1018.1
20260830200504 0 217 4.0 7.0 0.00 0.00 0.00 1018.1
20260830200007 0 229 4.0 8.0 0.00 0.00 0.00 1018.2
20260830195500 0 222 4.0 8.0 0.00 0.00 0.00 1018.4
20260830195003 0 212 4.0 7.0 0.00 0.00 0.00 1018.3
20260830194502 0 223 4.0 9.0 0.00 0.00 0.00 1018.3
20260830194002 0 224 5.0 10.0 0.00 0.00 0.00 1018.4
20260830193501 0 217 5.0 10.0 0.00 0.00 0.00 1018.3
20260830193001 0 152 3.0 10.0 0.00 0.00 0.00 1018.4
20260830191501 0 160 5.0 12.0 0.00 0.00 0.00 1018.4
20260830191000 0 226 5.0 12.0 0.00 0.00 0.00 1018.4
20260830190500 0 141 5.0 9.0 0.00 0.00 0.00 1018.3
20260830185500 0 167 6.0 9.0 0.00 0.00 0.00 1018.3
20260830185000 0 203 6.0 9.0 0.00 0.00 0.00 1018.5
20260830184509 0 152 5.0 10.0 0.00 0.00 0.00 1018.6
20260830184006 0 195 6.0 10.0 0.00 0.00 0.00 1018.8
20260830183500 0 135 4.0 8.0 0.00 0.00 0.00 1018.9
20260830183000 0 197 5.0 9.0 0.00 0.00 0.00 1019.0
20260830182503 0 156 4.0 11.0 0.00 0.00 0.00 1019.2
20260830182002 0 148 6.0 9.0 0.00 0.00 0.00 1019.3
20260830181505 0 172 3.0 9.0 0.00 0.00 0.00 1019.4
20260830181007 0 171 5.0 9.0 0.00 0.00 0.00 1019.6
20260830180503 0 139 5.0 9.0 0.00 0.00 0.00 1019.5
20260830180006 0 169 5.0 8.0 0.00 0.00 0.00 1019.6
20260830175501 0 141 4.0 9.0 0.00 0.00 0.00 1019.8
20260830175000 0 191 6.0 9.0 0.00 0.00 0.00 1019.9
20260830174507 0 179 6.0 9.0 0.00 0.00 0.00 1019.9
20260830174006 0 184 5.0 8.0 0.00 0.00 0.00 1020.0
20260830173501 0 134 4.0 7.0 0.00 0.00 0.00 1020.1
20260830173003 0 153 4.0 7.0 0.00 0.00 0.00 1020.1
20260830172003 0 155 3.0 5.0 0.00 0.00 0.00 1020.2
20260830171500 0 156 3.0 4.0 0.00 0.00 0.00 1020.2
20260830171003 0 176 2.0 5.0 0.00 0.00 0.00 1020.3
20260830170500 0 165 2.0 4.0 0.00 0.00 0.00 1020.4
20260830165501 0 166 2.0 4.0 0.00 0.00 0.00 1020.6
20260830165000 0 150 2.0 4.0 0.00 0.00 0.00 1020.7
20260830164508 78 229 2.0 3.0 0.00 0.00 0.00 1020.8
20260830164011 0 255 2.0 4.0 0.00 0.00 0.00 72 1020.8
20260830163503 0 221 2.0 5.0 0.00 0.00 0.00 72 1020.8
20260830163003 77 188 3.0 5.0 0.00 0.00 0.00 74 1020.9
20260830162504 77 148 1.0 3.0 0.00 0.00 0.00 75 1020.8
20260830162004 77 221 2.0 3.0 0.00 0.00 0.00 74 1020.9
20260830161501 77 203 2.0 3.0 0.00 0.00 0.00 75 1020.9
20260830161002 76 164 0.0 2.0 0.00 0.00 0.00 77 1020.8
20260830160505 76 156 0.0 2.0 0.00 0.00 0.00 77 1020.8
20260830160014 75 152 0.0 0.0 0.00 0.00 0.00 78 1020.8
20260830155502 75 157 0.0 0.0 0.00 0.00 0.00 80 1020.8
20260830155001 74 157 0.0 0.0 0.00 0.00 0.00 81 1020.9
20260830154501 74 157 0.0 1.0 0.00 0.00 0.00 1020.8
20260830154000 0 157 0.0 1.0 0.00 0.00 0.00 1020.8
20260830153500 73 157 0.0 2.0 0.00 0.00 0.00 1 1020.7
20260830152500 73 153 1.0 2.0 0.00 0.00 0.00 1020.5
20260830152001 73 157 1.0 3.0 0.00 0.00 0.00 100 1020.5
20260830151501 0 133 1.0 3.0 0.00 0.00 0.00 1020.6
20260830151001 74 193 0.0 2.0 0.00 0.00 0.00 79 1020.5
20260830150459 74 193 0.0 4.0 0.00 0.00 0.00 80 1020.4
20260830150003 74 210 1.0 4.0 0.00 0.00 0.00 78 1020.3
20260830145459 74 269 1.0 3.0 0.00 0.00 0.00 79 1020.4
20260830144959 74 271 1.0 3.0 0.00 0.00 0.00 77 1020.2
20260830144458 75 267 1.0 3.0 0.00 0.00 0.00 76 1020.1
20260830143959 75 258 1.0 3.0 0.00 0.00 0.00 76 1020.0
20260830143459 75 257 1.0 3.0 0.00 0.00 0.00 77 1020.0
20260830142959 75 253 1.0 4.0 0.00 0.00 0.00 77 1019.8
20260830142459 75 254 1.0 4.0 0.00 0.00 0.00 77 1019.7
20260830142000 75 242 2.0 6.0 0.00 0.00 0.00 77 1019.6
20260830141459 75 202 3.0 6.0 0.00 0.00 0.00 77 1019.4
20260830140959 74 226 2.0 5.0 0.00 0.00 0.00 78 1019.3
20260830140459 74 203 3.0 5.0 0.00 0.00 0.00 78 1019.3
20260830140006 74 203 3.0 6.0 0.00 0.00 0.00 77 1019.2
20260830135459 74 243 3.0 6.0 0.00 0.00 0.00 77 1019.2
20260830134959 74 214 3.0 5.0 0.00 0.00 0.00 77 1019.3
20260830134459 73 189 3.0 6.0 0.00 0.00 0.00 77 1019.3
20260830133959 73 217 2.0 6.0 0.00 0.00 0.00 78 1019.4
20260830133458 73 195 2.0 4.0 0.00 0.00 0.00 78 1019.3
20260830132959 73 222 2.0 7.0 0.00 0.00 0.00 78 1019.3
20260830132000 73 206 3.0 7.0 0.00 0.00 0.00 77 1019.4
20260830131500 73 222 3.0 9.0 0.00 0.00 0.00 77 1019.3
20260830130959 73 165 3.0 9.0 0.00 0.00 0.00 78 1019.1
20260830130002 72 169 3.0 6.0 0.00 0.00 0.00 78 1019.2
20260830125458 72 158 2.0 4.0 0.00 0.00 0.00 79 1019.2
20260830123959 70 144 2.0 6.0 0.00 0.00 0.00 81 1019.3
20260830123459 70 187 3.0 7.0 0.00 0.00 0.00 81 1019.1
20260830122958 69 158 3.0 6.0 0.00 0.00 0.00 81 1019.1
20260830121959 69 188 3.0 6.0 0.00 0.00 0.00 82 1019.1
20260830121501 69 167 3.0 4.0 0.00 0.00 0.00 82 1019.0
20260830120959 68 168 2.0 5.0 0.00 0.00 0.00 82 1019.0
20260830120459 68 179 2.0 5.0 0.00 0.00 0.00 82 1018.9
20260830120003 68 169 2.0 5.0 0.00 0.00 0.00 83 1018.8
20260830115459 68 148 3.0 5.0 0.00 0.00 0.00 83 1018.9
20260830114959 68 148 2.0 4.0 0.00 0.00 0.00 83 1018.8
20260830114501 68 165 2.0 4.0 0.00 0.00 0.00 83 1018.9
20260830114000 68 176 1.0 5.0 0.00 0.00 0.00 83 1018.9
20260830113500 68 161 2.0 5.0 0.00 0.00 0.00 83 1019.0
20260830113001 68 167 2.0 4.0 0.00 0.00 0.00 83 1019.0
20260830111459 67 172 1.0 2.0 0.00 0.00 0.00 83 1019.1
20260830110958 68 169 1.0 2.0 0.00 0.00 0.00 83 1019.1
20260830110458 68 169 1.0 2.0 0.00 0.00 0.00 82 1019.1
20260830110004 68 169 1.0 2.0 0.00 0.00 0.00 82 1019.1
20260830105459 68 170 1.0 1.0 0.00 0.00 0.00 82 1019.1
20260830105001 68 170 0.0 1.0 0.00 0.00 0.00 82 1019.1
20260830104458 68 170 0.0 1.0 0.00 0.00 0.00 82 1019.1
20260830104000 68 170 0.0 2.0 0.00 0.00 0.00 82 1019.1
20260830103458 68 170 0.0 3.0 0.00 0.00 0.00 82 1019.0
20260830103000 68 176 1.0 3.0 0.00 0.00 0.00 82 1019.0
20260830102500 68 174 1.0 2.0 0.00 0.00 0.00 82 1019.1
20260830102000 68 170 0.0 2.0 0.00 0.00 0.00 82 1019.0
20260830100958 68 170 0.0 2.0 0.00 0.00 0.00 82 1019.0
20260830100458 68 168 1.0 2.0 0.00 0.00 0.00 82 1019.0
20260830100002 68 179 1.0 4.0 0.00 0.00 0.00 82 1019.0
20260830095458 68 179 2.0 4.0 0.00 0.00 0.00 82 1019.0
20260830094959 68 170 1.0 3.0 0.00 0.00 0.00 82 1018.9
20260830094500 68 172 1.0 3.0 0.00 0.00 0.00 82 1018.9
20260830093959 68 181 2.0 4.0 0.00 0.00 0.00 82 1018.8
20260830093458 68 174 1.0 5.0 0.00 0.00 0.00 82 1018.8
20260830092958 68 174 3.0 5.0 0.00 0.00 0.00 82 1018.7
20260830092500 67 161 2.0 4.0 0.00 0.00 0.00 83 1018.8
20260830092000 67 159 2.0 4.0 0.00 0.00 0.00 83 1018.8
20260830091459 67 168 1.0 4.0 0.00 0.00 0.00 82 1018.7
20260830090959 67 171 2.0 4.0 0.00 0.00 0.00 82 1018.7
20260830090458 67 174 2.0 4.0 0.00 0.00 0.00 82 1018.7
20260830090004 68 176 2.0 4.0 0.00 0.00 0.00 82 1018.6
20260830084459 68 167 1.0 5.0 0.00 0.00 0.00 82 1018.6
20260830083958 68 170 3.0 5.0 0.00 0.00 0.00 82 1018.6
20260830083458 68 179 3.0 5.0 0.00 0.00 0.00 82 1018.7
20260830082959 68 167 2.0 5.0 0.00 0.00 0.00 82 1018.7
20260830082500 68 169 2.0 5.0 0.00 0.00 0.00 82 1018.7
20260830081958 68 169 3.0 5.0 0.00 0.00 0.00 82 1018.9
20260830081459 68 181 3.0 5.0 0.00 0.00 0.00 82 1018.8
20260830080959 68 166 2.0 4.0 0.00 0.00 0.00 82 1018.8
20260830080459 68 163 2.0 4.0 0.00 0.00 0.00 82 1018.9
20260830080003 68 167 2.0 5.0 0.00 0.00 0.00 82 1019.0
20260830075500 68 175 3.0 5.0 0.00 0.00 0.00 82 1019.0
20260830074459 68 177 3.0 5.0 0.00 0.00 0.00 82 1019.0
20260830073959 68 161 2.0 4.0 0.00 0.00 0.00 82 1019.1